• En España
  • Lista de países
  • Para 7 días
  • Temperatura del agua
  • Mapa Satelital
  • El tiempo en el mapa
  • Informadores
  • user-avatar
    Iniciar sesión

    Tiempo cada hora Bolshoe Minino

    Hoy, 23 Septiembre, Domingo

    Tiempo Temperatura Precipitaciones Viento Presión Humedad
    00:00 +19°C° 0 mm 6 mps 734 mmHg 52%
    01:00 +19°C° 0 mm 6 mps 733 mmHg 52%
    02:00 +17°C° 0 mm 6 mps 733 mmHg 52%
    03:00 +17°C° 0.1 mm 6 mps 733 mmHg 55%
    04:00 +16°C° 0.1 mm 6 mps 733 mmHg 58%
    05:00 +16°C° 0.1 mm 5 mps 732 mmHg 62%
    06:00 +14°C° 0.7 mm 6 mps 732 mmHg 69%
    07:00 +13°C° 0.7 mm 6 mps 732 mmHg 77%
    08:00 +10°C° 0.7 mm 7 mps 732 mmHg 84%
    09:00 +10°C° 0.7 mm 6 mps 733 mmHg 84%
    10:00 +9°C° 0.7 mm 6 mps 734 mmHg 83%
    11:00 +9°C° 0.7 mm 5 mps 734 mmHg 83%
    12:00 +9°C° 0 mm 5 mps 735 mmHg 81%
    13:00 +10°C° 0 mm 5 mps 735 mmHg 78%
    14:00 +12°C° 0 mm 4 mps 735 mmHg 76%
    15:00 +12°C° 0 mm 4 mps 735 mmHg 76%
    16:00 +12°C° 0 mm 3 mps 735 mmHg 76%
    17:00 +12°C° 0 mm 3 mps 735 mmHg 75%
    18:00 +11°C° 0 mm 3 mps 735 mmHg 78%
    19:00 +10°C° 0 mm 3 mps 735 mmHg 81%
    20:00 +9°C° 0 mm 3 mps 735 mmHg 84%
    21:00 +9°C° 0 mm 3 mps 735 mmHg 86%
    22:00 +9°C° 0 mm 3 mps 735 mmHg 87%
    23:00 +8°C° 0 mm 3 mps 735 mmHg 89%

    Mañana, 24 Septiembre, Lunes

    Tiempo Temperatura Precipitaciones Viento Presión Humedad
    00:00 +8°C° 0 mm 3 mps 735 mmHg 89%
    01:00 +8°C° 0 mm 3 mps 735 mmHg 90%
    02:00 +7°C° 0 mm 3 mps 735 mmHg 91%
    03:00 +7°C° 0 mm 3 mps 735 mmHg 90%
    04:00 +7°C° 0 mm 3 mps 735 mmHg 89%
    05:00 +7°C° 0 mm 3 mps 735 mmHg 88%
    06:00 +8°C° 0 mm 3 mps 735 mmHg 83%
    07:00 +10°C° 0 mm 3 mps 735 mmHg 79%
    08:00 +11°C° 0 mm 4 mps 735 mmHg 74%
    09:00 +10°C° 0.1 mm 5 mps 734 mmHg 71%
    10:00 +11°C° 0.1 mm 6 mps 734 mmHg 68%
    11:00 +11°C° 0.1 mm 7 mps 733 mmHg 66%
    12:00 +10°C° 1.2 mm 7 mps 732 mmHg 72%
    13:00 +10°C° 1.2 mm 8 mps 731 mmHg 78%
    14:00 +9°C° 1.2 mm 8 mps 730 mmHg 84%
    15:00 +8°C° 1.6 mm 9 mps 729 mmHg 85%
    16:00 +8°C° 1.6 mm 10 mps 727 mmHg 86%
    17:00 +9°C° 1.6 mm 10 mps 726 mmHg 87%
    18:00 +9°C° 1.1 mm 11 mps 725 mmHg 88%
    19:00 +11°C° 1.1 mm 11 mps 724 mmHg 88%
    20:00 +11°C° 1.1 mm 11 mps 722 mmHg 88%
    21:00 +9°C° 0.1 mm 10 mps 722 mmHg 86%
    22:00 +8°C° 0.1 mm 10 mps 722 mmHg 84%
    23:00 +7°C° 0.1 mm 10 mps 722 mmHg 82%

    Pasado mañana, 25 Septiembre, Martes

    Tiempo Temperatura Precipitaciones Viento Presión Humedad
    00:00 +7°C° 0 mm 9 mps 723 mmHg 82%
    01:00 +7°C° 0 mm 9 mps 724 mmHg 82%
    02:00 +6°C° 0 mm 8 mps 724 mmHg 82%
    03:00 +6°C° 0 mm 8 mps 725 mmHg 83%
    04:00 +6°C° 0 mm 8 mps 725 mmHg 83%
    05:00 +6°C° 0 mm 8 mps 726 mmHg 83%
    06:00 +6°C° 0 mm 8 mps 726 mmHg 82%
    07:00 +6°C° 0 mm 9 mps 727 mmHg 81%
    08:00 +6°C° 0 mm 9 mps 727 mmHg 80%
    09:00 +6°C° 0 mm 8 mps 728 mmHg 79%
    10:00 +6°C° 0 mm 8 mps 729 mmHg 77%
    11:00 +6°C° 0 mm 8 mps 729 mmHg 76%
    12:00 +6°C° 0 mm 8 mps 730 mmHg 75%
    13:00 +6°C° 0 mm 8 mps 731 mmHg 75%
    14:00 +6°C° 0 mm 8 mps 731 mmHg 74%
    15:00 +5°C° 0 mm 8 mps 732 mmHg 73%
    16:00 +5°C° 0 mm 7 mps 733 mmHg 73%
    17:00 +5°C° 0 mm 7 mps 733 mmHg 73%
    18:00 +5°C° 0 mm 7 mps 734 mmHg 73%
    19:00 +4°C° 0 mm 6 mps 734 mmHg 73%
    20:00 +4°C° 0 mm 6 mps 735 mmHg 74%
    21:00 +4°C° 0 mm 6 mps 735 mmHg 75%
    22:00 +4°C° 0 mm 6 mps 736 mmHg 76%
    23:00 +3°C° 0 mm 5 mps 736 mmHg 77%

    26 Septiembre, Miércoles

    Tiempo Temperatura Precipitaciones Viento Presión Humedad
    00:00 +3°C° 0 mm 5 mps 737 mmHg 77%
    01:00 +3°C° 0 mm 5 mps 737 mmHg 77%
    02:00 +3°C° 0 mm 5 mps 738 mmHg 78%
    03:00 +2°C° 0 mm 5 mps 739 mmHg 77%
    04:00 +2°C° 0 mm 5 mps 739 mmHg 77%
    05:00 +1°C° 0 mm 5 mps 740 mmHg 76%
    06:00 +2°C° 0 mm 5 mps 740 mmHg 73%
    07:00 +2°C° 0 mm 6 mps 741 mmHg 70%
    08:00 +2°C° 0 mm 6 mps 742 mmHg 67%
    09:00 +4°C° 0 mm 6 mps 742 mmHg 62%
    10:00 +5°C° 0 mm 6 mps 742 mmHg 57%
    11:00 +7°C° 0 mm 6 mps 742 mmHg 53%
    12:00 +8°C° 0 mm 6 mps 742 mmHg 52%
    13:00 +8°C° 0 mm 6 mps 742 mmHg 51%
    14:00 +9°C° 0 mm 7 mps 742 mmHg 51%
    15:00 +8°C° 0 mm 6 mps 742 mmHg 55%
    16:00 +8°C° 0 mm 5 mps 742 mmHg 59%
    17:00 +7°C° 0 mm 4 mps 742 mmHg 63%
    18:00 +7°C° 0 mm 5 mps 741 mmHg 64%
    19:00 +7°C° 0 mm 5 mps 741 mmHg 66%
    20:00 +5°C° 0 mm 6 mps 741 mmHg 67%
    21:00 +5°C° 0 mm 6 mps 741 mmHg 70%
    22:00 +5°C° 0 mm 6 mps 740 mmHg 72%
    23:00 +5°C° 0 mm 7 mps 740 mmHg 75%

    27 Septiembre, Jueves

    Tiempo Temperatura Precipitaciones Viento Presión Humedad
    00:00 +5°C° 0.3 mm 7 mps 739 mmHg 77%
    01:00 +5°C° 0.3 mm 8 mps 738 mmHg 78%
    02:00 +5°C° 0.3 mm 9 mps 738 mmHg 80%
    03:00 +5°C° 0.3 mm 9 mps 737 mmHg 80%
    04:00 +5°C° 0.3 mm 9 mps 736 mmHg 79%
    05:00 +3°C° 0.3 mm 10 mps 735 mmHg 79%
    06:00 +3°C° 0.1 mm 10 mps 735 mmHg 79%
    07:00 +5°C° 0.1 mm 10 mps 735 mmHg 80%
    08:00 +5°C° 0.1 mm 10 mps 734 mmHg 80%
    09:00 +5°C° 0 mm 10 mps 734 mmHg 80%
    10:00 +6°C° 0 mm 9 mps 734 mmHg 80%
    11:00 +7°C° 0 mm 9 mps 734 mmHg 80%
    12:00 +6°C° 0.3 mm 9 mps 733 mmHg 81%
    13:00 +6°C° 0.3 mm 9 mps 733 mmHg 83%
    14:00 +6°C° 0.3 mm 9 mps 733 mmHg 84%
    15:00 +6°C° 0.5 mm 9 mps 732 mmHg 85%
    16:00 +6°C° 0.5 mm 9 mps 732 mmHg 86%
    17:00 +6°C° 0.5 mm 9 mps 731 mmHg 87%
    18:00 +7°C° 0.3 mm 9 mps 731 mmHg 87%
    19:00 +7°C° 0.3 mm 8 mps 731 mmHg 88%
    20:00 +7°C° 0.3 mm 8 mps 731 mmHg 88%
    21:00 +9°C° 0.3 mm 8 mps 730 mmHg 88%
    22:00 +9°C° 0.3 mm 8 mps 730 mmHg 88%
    23:00 +8°C° 0.3 mm 9 mps 730 mmHg 88%

    28 Septiembre, Viernes

    Tiempo Temperatura Precipitaciones Viento Presión Humedad
    00:00 +9°C° 0.3 mm 8 mps 730 mmHg 87%
    01:00 +9°C° 0.3 mm 8 mps 730 mmHg 86%
    02:00 +9°C° 0.3 mm 8 mps 730 mmHg 85%
    03:00 +8°C° 0 mm 7 mps 730 mmHg 86%
    04:00 +6°C° 0 mm 7 mps 731 mmHg 88%
    05:00 +7°C° 0 mm 6 mps 731 mmHg 89%
    06:00 +7°C° 0 mm 6 mps 731 mmHg 86%
    07:00 +8°C° 0 mm 7 mps 731 mmHg 82%
    08:00 +8°C° 0 mm 7 mps 732 mmHg 79%
    09:00 +9°C° 0 mm 7 mps 732 mmHg 74%
    10:00 +10°C° 0 mm 7 mps 732 mmHg 68%
    11:00 +11°C° 0 mm 7 mps 732 mmHg 63%
    12:00 +10°C° 0.1 mm 7 mps 732 mmHg 63%
    13:00 +10°C° 0.1 mm 7 mps 732 mmHg 64%
    14:00 +10°C° 0.1 mm 6 mps 732 mmHg 65%
    15:00 +9°C° 0.1 mm 6 mps 732 mmHg 68%
    16:00 +9°C° 0.1 mm 5 mps 732 mmHg 71%
    17:00 +8°C° 0.1 mm 4 mps 732 mmHg 73%
    18:00 +7°C° 0.1 mm 4 mps 732 mmHg 75%
    19:00 +6°C° 0.1 mm 5 mps 733 mmHg 77%
    20:00 +6°C° 0.1 mm 5 mps 733 mmHg 79%
    21:00 +5°C° 0 mm 5 mps 734 mmHg 77%
    22:00 +3°C° 0 mm 5 mps 734 mmHg 75%
    23:00 +3°C° 0 mm 5 mps 735 mmHg 73%
    Mostrar más